2024/01/25 00:00:00,49.7,-1.7
2024/01/25 00:10:00,50.1,-1.7
2024/01/25 00:20:00,50.3,-1.8
2024/01/25 00:30:00,50.6,-1.6
2024/01/25 00:40:00,50.6,-1.4
2024/01/25 00:50:00,50.7,-1.1
2024/01/25 01:00:00,50.6,-0.9
2024/01/25 01:10:00,50.3,-1.0
2024/01/25 01:20:00,50.0,-1.3
2024/01/25 01:30:00,50.1,-1.5
2024/01/25 01:40:00,50.0,-1.3
2024/01/25 01:50:00,50.1,-1.4
2024/01/25 02:00:00,49.9,-1.3
2024/01/25 02:10:00,50.1,-1.5
2024/01/25 02:20:00,51.0,-0.8
2024/01/25 02:30:00,51.5,-1.3
2024/01/25 02:40:00,52.1,-1.3
2024/01/25 02:50:00,52.0,-1.3
2024/01/25 03:00:00,52.0,-1.4
2024/01/25 03:10:00,52.4,-1.5
2024/01/25 03:20:00,52.6,-1.5
2024/01/25 03:30:00,53.0,-1.3
2024/01/25 03:40:00,53.5,-1.6
2024/01/25 03:50:00,53.6,-1.4
2024/01/25 04:00:00,53.9,-1.5
2024/01/25 04:10:00,54.3,-1.6
2024/01/25 04:20:00,54.4,-1.1
2024/01/25 04:30:00,54.4,-1.5
2024/01/25 04:40:00,54.5,-1.4
2024/01/25 04:50:00,54.3,-1.4
2024/01/25 05:00:00,54.1,-0.8
2024/01/25 05:10:00,54.3,-1.3
2024/01/25 05:20:00,54.2,-0.6
2024/01/25 05:30:00,54.1,-1.4
2024/01/25 05:40:00,54.2,-1.4
2024/01/25 05:50:00,54.3,-1.3
2024/01/25 06:00:00,54.8,-1.3
2024/01/25 06:10:00,55.1,-1.3
2024/01/25 06:20:00,54.9,-1.4
2024/01/25 06:30:00,55.1,-1.4
2024/01/25 06:40:00,55.2,-1.3
2024/01/25 06:50:00,55.6,-1.4
2024/01/25 07:00:00,55.9,-1.5
2024/01/25 07:10:00,55.8,-1.5
2024/01/25 07:20:00,55.7,-1.5
2024/01/25 07:30:00,55.5,-1.4
2024/01/25 07:40:00,55.4,-1.1
2024/01/25 07:50:00,55.4,-1.1
2024/01/25 08:00:00,55.3,-1.1
2024/01/25 08:10:00,55.3,-0.9
2024/01/25 08:20:00,55.4,-0.9
2024/01/25 08:30:00,55.6,-0.8
2024/01/25 08:40:00,55.7,-0.8
2024/01/25 08:50:00,56.1,-0.7
2024/01/25 09:00:00,56.3, 0.7
2024/01/25 09:10:00,56.1, 0.0
2024/01/25 09:20:00,56.1, 0.6
2024/01/25 09:30:00,56.1, 0.4
2024/01/25 09:40:00,56.3, 0.7
2024/01/25 09:50:00,56.4, 0.6
2024/01/25 10:00:00,56.6, 0.5
2024/01/25 10:10:00,57.0, 0.2
2024/01/25 10:20:00,57.5, 0.2
2024/01/25 10:30:00,57.9, 0.2
2024/01/25 10:40:00,58.2, 0.3
2024/01/25 10:50:00,58.9, 0.1
2024/01/25 11:00:00,59.5, 0.5
2024/01/25 11:10:00,59.5, 1.5
2024/01/25 11:20:00,59.3, 1.4
2024/01/25 11:30:00,59.5, 1.6
2024/01/25 11:40:00,59.6, 1.2
2024/01/25 11:50:00,59.7, 2.4
2024/01/25 12:00:00,59.7, 0.7
2024/01/25 12:10:00,59.9, 0.5
2024/01/25 12:20:00,60.2, 1.0
2024/01/25 12:30:00,60.5, 1.2
2024/01/25 12:40:00,61.1, 3.9
2024/01/25 12:50:00,60.9, 2.7
2024/01/25 13:00:00,60.8, 2.8
2024/01/25 13:10:00,60.6, 1.4
2024/01/25 13:20:00,61.0, 1.7
2024/01/25 13:30:00,61.5, 3.1
2024/01/25 13:40:00,61.4, 1.8
2024/01/25 13:50:00,61.7, 2.3
2024/01/25 14:00:00,61.7, 1.6
2024/01/25 14:10:00,62.0, 1.1
2024/01/25 14:20:00,62.5, 1.4
2024/01/25 14:30:00,62.6, 1.0
2024/01/25 14:40:00,62.8, 0.8
2024/01/25 14:50:00,63.1, 0.9
2024/01/25 15:00:00,63.2, 0.6
2024/01/25 15:10:00,63.6, 1.5
2024/01/25 15:20:00,63.9, 1.1
2024/01/25 15:30:00,64.2, 1.3
2024/01/25 15:40:00,64.3, 0.6
2024/01/25 15:50:00,64.2, 0.2
2024/01/25 16:00:00,64.6, 0.6
2024/01/25 16:10:00,65.4, 0.8
2024/01/25 16:20:00,65.3, 0.7
2024/01/25 16:30:00,65.2, 0.5
2024/01/25 16:40:00,65.6, 0.4
2024/01/25 16:50:00,65.6, 0.0
2024/01/25 17:00:00,65.6, 0.3
2024/01/25 17:10:00,66.0,-0.1
2024/01/25 17:20:00,66.4, 0.0
2024/01/25 17:30:00,66.8, 0.0
2024/01/25 17:40:00,66.9, 0.0
2024/01/25 17:50:00,66.9,-0.1
2024/01/25 18:00:00,67.0, 0.1
2024/01/25 18:10:00,159.2,-0.1
2024/01/25 18:20:00,318.9,-0.1
2024/01/25 18:30:00,319.6,-0.2
2024/01/25 18:40:00,319.6,-0.1
2024/01/25 18:50:00,319.4,-0.1
2024/01/25 19:00:00,319.5,-0.1
2024/01/25 19:10:00,319.2, 0.3
2024/01/25 19:20:00,319.1, 0.0
2024/01/25 19:30:00,318.9, 0.3
2024/01/25 19:40:00,318.9, 0.3
2024/01/25 19:50:00,318.6, 0.0
2024/01/25 20:00:00,318.3,-0.1
2024/01/25 20:10:00,318.1,-0.1
2024/01/25 20:20:00,317.9,-0.2
2024/01/25 20:30:00,318.0,-0.1
2024/01/25 20:40:00,318.3, 0.0
2024/01/25 20:50:00,318.3, 0.0
2024/01/25 21:00:00,318.3,-0.1
2024/01/25 21:10:00,318.2,-0.1
2024/01/25 21:20:00,318.0,-0.2
2024/01/25 21:30:00,318.0,-0.1
2024/01/25 21:40:00,318.0,-0.1
2024/01/25 21:50:00,318.0,-0.1
2024/01/25 22:00:00,318.1, 0.0
2024/01/25 22:10:00,317.7, 0.2
2024/01/25 22:20:00,317.5, 0.0
2024/01/25 22:30:00,317.3, 0.2
2024/01/25 22:40:00,317.2, 0.2
2024/01/25 22:50:00,317.5, 0.1
2024/01/25 23:00:00,317.4, 0.6
2024/01/25 23:10:00,317.1, 0.2
2024/01/25 23:20:00,317.0, 0.1
2024/01/25 23:30:00,316.6,-0.2
2024/01/25 23:40:00,316.3,-0.4
2024/01/25 23:50:00,316.2,-0.2
